TITAN 3C TRANSTAGE DEB, 38700

Orbit data source: Space-Track

TITAN 3C TRANSTAGE DEB, 38700 is space debris in GEO originally from a launch on Thu, 26 Sep 1968 UTC launched from the Air Force Eastern Test Range (AFETR). Debris objects in space refer to the collection of defunct objects orbiting the Earth. Examples of debris include non-operational satellites, rocket bodies, and fragments generated from explosions, collisions, or faulty payload assembly.

Loading next visibility...
Identifier
38700, 1968-081AA
Orbit
GEO
Country
Flag of USUS
Related business
Manufacturer
Unknown
Mission
Spacecraft
Bus & Motor
Unknown
Mass
Unknown
Launch date (UTC)
1968-09-26 (58 years ago)
Launch vehicle
Unknown
Launch site
Air Force Eastern Test Range (AFETR)
Object type
Payload
Rocket body
Debris
Shape & HBR
Unknown shape, 1.1 m
Radar Cross Section
Medium (>0.1 m² and <1 m²)

Expand to show TLE details & history
Last TLE update: 3 months ago

TLE from 3 months ago
0 TITAN 3C TRANSTAGE DEB
1 38700U 68081AA  26169.88318736 -.00000034  00000-0  00000-0 0  9997
2 38700   2.2674  62.8746 0119163 211.5875 147.2341  1.02725216 64619
Epoch: 2026-06-18T21:11Z
TLE epoch observation values (Epoch: 2026-06-18T21:11:47.387Z)
Latitude
0.00001°
Longitude
-162.62622°
Altitude
35,531.613 km
Speed
3.068 km/s
True Right ascension
04h 09m 45s
True Declination
0° 00' 00"
Sunlit
Object was in daylight at epoch
Visualization orbit readout
Latitude
Unknown
Longitude
Unknown
Altitude
Unknown
Speed
Unknown
Apparent Right ascension
Unknown
Apparent Declination
Unknown
Sunlit
N/A
Visualization observer readout
Local Sidereal Time
03:24:03
Azimuth
Unknown
Elevation
Unknown
Doppler factor
Unknown
Orbital elements
Apogee altitude
35,608.048 km
Perigee altitude
34,619.191 km
Semi-major axis
41,491.756 km
Eccentricity
0.01192
Inclination
2.2674°
RAAN
62.8746°
Arg. of periapsis
211.5875°
True anomaly
147.96396°
Mean anomaly
147.2341°
Eccentric anomaly
147.59994°
Mean motion
0.2568 °/min
Orbital period
1,401.85 mins
BSTAR
0
Loading maneuver chart data...
Computing Atmospheric mass density...

Documentation

Showing up to 5 results
|